Hourly Data Report for April 12, 2018

KUGAARUK CLIMATE
NUNAVUT
Current Station Operator: ECCC - MSC

68°32'15.060" N
89°47'47.020" W
15.80 m
2303094
71407
NBB

Download Data

Hourly Data (April 2018)
Hourly Data Report for April 12, 2018
TIME
LST
Temp Definition
°C
Dew Point Definition
°C
Rel Hum Definition
%
Precip. Amount Definition
mm

Wind Dir Definition
10's deg

Wind Spd Definition
km/h
Visibility Definition
km
Stn Press Definition
kPa
Hmdx Definition


Wind Chill Definition


Weather Definition


00:00 -31.7 -35.1 72 0.0 24 9   101.30   -41 LegendNANA
01:00 -34.8 -39.1 65 0.0 29 1   101.36   -36 LegendNANA
02:00 -35.1 -38.8 69 0.0 11 4   101.42   -40 LegendNANA
03:00 -35.7 -39.7 67 0.0 5 3   101.45   -40 LegendNANA
04:00 -35.9 -39.9 67 0.0   0   101.51     LegendNANA
05:00 -34.3 -38.2 68 0.0   0   101.56     LegendNANA
06:00 -34.9 -40.4 57 0.0 0 1   101.59   -36 LegendNANA
07:00 -33.2 -39.1 55 0.0 5 1   101.63   -34 LegendNANA
08:00 -29.9 -36.0 56 0.0 19 3   101.66   -33 LegendNANA
09:00 -29.3 -36.0 53 0.0 4 1   101.72   -30 LegendNANA
10:00 -28.2 -34.0 57 0.0 23 9   101.78   -36 LegendNANA
11:00 -26.6 -32.1 60 0.0 24 10   101.80   -35 LegendNANA
12:00 -25.4 -31.6 56 0.0 25 8   101.82   -33 LegendNANA
13:00 -24.1 -30.0 58 0.0 26 11   101.86   -33 LegendNANA
14:00 -23.5 -29.1 60 0.0 26 12   101.90   -32 LegendNANA
15:00 -22.6 -28.3 60 0.0 26 11   101.93   -31 LegendNANA
16:00 -22.5 -28.1 61 0.0 26 10   101.97   -30 LegendNANA
17:00 -23.4 -28.3 64 0.0 26 11   101.99   -32 LegendNANA
18:00 -24.7 -28.8 69 0.0 26 11   102.01   -33 LegendNANA
19:00 -26.7 -30.4 71 0.0 26 6   102.05   -33 LegendNANA
20:00 -25.7 -29.0 74 0.0 25 3   102.09   -29 LegendNANA
21:00 -26.8 -30.0 74 0.0 0 1   102.08   -28 LegendNANA
22:00 -28.0 -31.3 73 0.0 26 7   102.09   -35 LegendNANA
23:00 -25.8 -28.2 81 0.0 25 7   102.12   -32 LegendNANA

Notes on Data Quality.

Legend

  • E = Estimated
  • M = Missing
  • NA = Not Available*
  • [empty] = Indicates an unobserved value
Date modified: